Вернуться в каталог

FENGYUN 1C DEB

АктивенSSO
NORAD 30286·DEBRIS·🇨🇳 China

Запущен May 10, 1999 с Taiyuan Satellite Launch Center

Loading…

Ближайшие Пролёты (ближайшие 24 часа)

TLE

СвежийSource: Space-Track

Эпоха: Sep 14, 2026, 23:06 UTC

1 30286U 99025YX  26257.96275417  .00000066  00000-0  56900-4 0  9993
2 30286  98.6958 259.2567 0064931  66.9526 322.5726 14.12815231 13570

Отслеживайте FENGYUN 1C DEB в реальном времени с AllMySat

Download on the App Store